Weather History for Capo Mele, Italy

Change the Weather History Date:

Thursday, March 21, 2013

  Actual Average Record
Temperature  
Mean Temperature 51 °F -  
Max Temperature 56 °F 59 °F 69 °F (2012)
Min Temperature 46 °F 49 °F 42 °F (2009)
Degree Days  
Heating Degree Days 14    
Growing Degree Days 1 (Base 50)    
Moisture  
Dew Point 40 °F    
Average Humidity 68    
Maximum Humidity 87    
Minimum Humidity 44    
Precipitation  
Precipitation 0.00 in 0.09 in - ()
Sea Level Pressure  
Sea Level Pressure 29.90 in    
Wind  
Wind Speed 9 mph ()    
Max Wind Speed 21 mph    
Max Gust Speed -    
Visibility 12.0 miles    
Events      
Averages and records for this station are not official NWS values.
T = Trace of Precipitation, MM = Missing Value Source: Averaged Metar Reports

Daily Weather History Graph

Daily Weather History Graph

Search for Another Location

Airport:

Trip Planner

Search our weather history database for the weather conditions in past years. The results will help you decide how hot, cold, wet, or windy it might be!

Date:

Astronomy

Mar. 21, 2013 Rise Set
Actual Time 6:28 AM CET 6:40 PM CET
Civil Twilight 5:59 AM CET 7:09 PM CET
Nautical Twilight 5:26 AM CET 7:43 PM CET
Astronomical Twilight 4:51 AM CET 8:18 PM CET
Moon 12:45 PM CET (3/21) 2:49 AM CET (3/21)
Length of Visible Light 13h 09m
Length of Day
12h 12m
Waxing Gibbous, 66% of the Moon is Illuminated
Mar 21
Waxing Gibbous
Mar 27
Full
Apr 3
Last Quarter
Apr 10
New
Apr 18
First Quarter

Hourly Weather History & Observations

Time (CET) Temp. Windchill Dew Point Humidity Pressure Visibility Wind Dir Wind Speed Gust Speed Precip Events Conditions
12:55 AM 46.4 °F 41.1 °F 41.0 °F 81% 29.83 in - WSW 11.5 mph - N/A   Clear
1:00 AM 47 °F - 41 °F 73% 29.85 in 12 mi WSW 11.5 mph - -  
1:55 AM 46.4 °F 42.4 °F 39.2 °F 76% 29.83 in - WSW 8.1 mph - N/A   Clear
2:55 AM 46.4 °F 45.2 °F 39.2 °F 76% 29.83 in - WNW 3.5 mph - N/A   Clear
3:55 AM 46.4 °F 45.2 °F 37.4 °F 71% 29.83 in - NW 3.5 mph - N/A   Clear
4:55 AM 48.2 °F - 30.2 °F 50% 29.86 in - SSW 4.6 mph - N/A   Clear
5:55 AM 48.2 °F - 32.0 °F 54% 29.86 in - SSW 4.6 mph - N/A   Clear
6:55 AM 48.2 °F - 33.8 °F 58% 29.89 in - WSW 5.8 mph - N/A   Clear
7:00 AM 48 °F - 33 °F 44% 29.91 in 12 mi WSW 5.8 mph - -  
7:55 AM 48.2 °F - 30.2 °F 50% 29.92 in - SW 4.6 mph - N/A   Clear
9:55 AM 53.6 °F - 33.8 °F 47% 29.92 in - South 4.6 mph - N/A   Clear
10:55 AM 53.6 °F - 41.0 °F 62% 29.92 in - SSW 9.2 mph - N/A   Clear
11:55 AM 55.4 °F - 41.0 °F 58% 29.92 in - SSW 13.8 mph - N/A   Clear
12:55 PM 55.4 °F - 48.2 °F 77% 29.92 in - SW 17.3 mph - N/A   Clear
1:00 PM 55 °F - 48 °F 70% 29.95 in 31 mi SW 17.3 mph - -   Clear
1:55 PM 55.4 °F - 46.4 °F 72% 29.92 in - SW 20.7 mph - N/A   Clear
2:55 PM 55.4 °F - 42.8 °F 63% 29.92 in - SW 20.7 mph - N/A   Clear
3:55 PM 55.4 °F - 39.2 °F 54% 29.89 in - SW 19.6 mph - N/A   Clear
4:55 PM 53.6 °F - 42.8 °F 67% 29.89 in - SW 17.3 mph - N/A   Clear
5:55 PM 51.8 °F - 37.4 °F 58% 29.89 in - SW 12.7 mph - N/A   Clear
6:55 PM 48.2 °F - 42.8 °F 82% 29.92 in - SW 10.4 mph - N/A   Clear
7:00 PM 49 °F - 43 °F 74% 29.94 in 12 mi SW 10.4 mph - -   Clear
7:55 PM 48.2 °F - 41.0 °F 76% 29.92 in - South 4.6 mph - N/A   Clear
8:55 PM 46.4 °F 40.7 °F 41.0 °F 81% 29.92 in - North 12.7 mph - N/A   Clear
9:55 PM 46.4 °F 40.1 °F 41.0 °F 81% 29.92 in - North 15.0 mph - N/A   Clear
10:55 PM 46.4 °F 39.8 °F 42.8 °F 87% 29.92 in - North 16.1 mph - N/A   Clear
11:55 PM 46.4 °F 39.8 °F 42.8 °F 87% 29.92 in - North 16.1 mph - N/A   Clear